Find STARLINK-36735

NORAD ID: 70609 Constellation: starlink operational
LEOCIRCULAR

Live-Position

3D-Globus wird geladen...

Über STARLINK-36735

Beschreibung wird geladen...

Nächste Überflüge

Passes for default location (London). Set your location on the main map for personalized predictions.

Höhenverlauf

Loading altitude history...

Zweizeiliger Elementsatz

1 70609C 26099AB 26122.87618056 .00064389 00000+0 74427-4 0 1227
2 70609 53.1634 22.6288 0005600 285.7538 107.3078 16.08099501 19
Epoch: 2. Mai 2026 • Age: 31 hours